Weather History for KTPF - August, 2013

Change the Weather History Date:

Saturday, August 17, 2013

  Actual Average (KTPA) Record (KTPA)
Temperature  
Mean Temperature 83 °F 83 °F  
Max Temperature 91 °F 90 °F 97 °F (1960)
Min Temperature 75 °F 76 °F 68 °F (1890)
Degree Days  
Heating Degree Days 0 0  
Month to date heating degree days 0  
Since 1 June heating degree days 0  
Since 1 July heating degree days 0  
Cooling Degree Days 18 18  
Month to date cooling degree days 306  
Year to date cooling degree days 2257  
Since 1 June cooling degree days 1380  
Growing Degree Days 33 (Base 50)    
Moisture  
Dew Point 73 °F    
Average Humidity 76    
Maximum Humidity 89    
Minimum Humidity 52    
Precipitation  
Precipitation 0.01 in 0.24 in 2.37 in (1901)
Month to date precipitation 4.24  
Year to date precipitation 30.19  
Sea Level Pressure  
Sea Level Pressure 30.04 in    
Wind  
Wind Speed 6 mph (SE)    
Max Wind Speed 22 mph    
Max Gust Speed 44 mph    
Visibility 10 miles    
Events Rain    
T = Trace of Precipitation, MM = Missing Value Source: NWS Daily Summary

Daily Weather History Graph

Daily Weather History Graph

Search for Another Location

Airport or City:

Trip Planner

Search our weather history database for the weather conditions in past years. The results will help you decide how hot, cold, wet, or windy it might be!

Date:

Astronomy

Aug. 17, 2013 Rise Set
Actual Time 7:01 AM EDT 8:05 PM EDT
Civil Twilight 6:36 AM EDT 8:30 PM EDT
Nautical Twilight 6:07 AM EDT 8:59 PM EDT
Astronomical Twilight 5:37 AM EDT 9:29 PM EDT
Moon 5:12 PM EDT (8/17) 3:12 AM EDT (8/17)
Length of Visible Light 13h 53m
Length of Day
13h 04m
Waxing Gibbous, 84% of the Moon is Illuminated
Aug 17
Waxing Gibbous
Aug 20
Full
Aug 28
Last Quarter
Sep 5
New
Sep 12
First Quarter

Hourly Weather History & Observations

Time (EDT) Temp. Heat Index Dew Point Humidity Pressure Visibility Wind Dir Wind Speed Gust Speed Precip Events Conditions
12:15 AM 78.8 °F - 71.6 °F 78% 30.05 in 10.0 mi East 8.1 mph - N/A   Mostly Cloudy
12:35 AM 78.8 °F - 71.6 °F 78% 30.06 in 10.0 mi SE 12.7 mph - N/A   Mostly Cloudy
12:55 AM 78.8 °F - 71.6 °F 78% 30.07 in 10.0 mi SSW 10.4 mph - N/A Rain Light Rain
1:15 AM 77.0 °F - 71.6 °F 83% 30.07 in 10.0 mi WNW 5.8 mph - N/A Rain Rain
1:35 AM 77.0 °F - 71.6 °F 83% 30.06 in 10.0 mi WNW 4.6 mph - N/A   Scattered Clouds
1:55 AM 77.0 °F - 71.6 °F 83% 30.05 in 10.0 mi NNW 3.5 mph - N/A Rain Rain
2:15 AM 77.0 °F - 73.4 °F 89% 30.04 in 10.0 mi NE 4.6 mph - 0.01 in Rain Light Rain
2:35 AM 77.0 °F - 73.4 °F 89% 30.04 in 10.0 mi Calm Calm - 0.01 in   Clear
2:55 AM 77.0 °F - 73.4 °F 89% 30.04 in 10.0 mi ENE 4.6 mph - 0.01 in   Clear
3:15 AM 77.0 °F - 73.4 °F 89% 30.03 in 10.0 mi East 4.6 mph - N/A   Clear
3:35 AM 77.0 °F - 73.4 °F 89% 30.03 in 10.0 mi East 3.5 mph - N/A   Scattered Clouds
3:55 AM 77.0 °F - 73.4 °F 89% 30.03 in 10.0 mi Calm Calm - N/A   Mostly Cloudy
4:15 AM 77.0 °F - 73.4 °F 89% 30.02 in 10.0 mi East 3.5 mph - N/A   Scattered Clouds
4:35 AM 77.0 °F - 73.4 °F 89% 30.01 in 10.0 mi East 3.5 mph - N/A   Clear
4:55 AM 77.0 °F - 73.4 °F 89% 30.01 in 10.0 mi East 3.5 mph - N/A   Scattered Clouds
5:15 AM 77.0 °F - 73.4 °F 89% 30.01 in 10.0 mi East 3.5 mph - N/A   Clear
5:35 AM 77.0 °F - 71.6 °F 83% 30.02 in 10.0 mi Calm Calm - N/A   Clear
5:55 AM 75.2 °F - 71.6 °F 89% 30.01 in 10.0 mi East 3.5 mph - N/A   Clear
6:15 AM 75.2 °F - 71.6 °F 89% 30.02 in 10.0 mi East 3.5 mph - N/A   Clear
6:35 AM 75.2 °F - 71.6 °F 89% 30.03 in 10.0 mi East 4.6 mph - N/A   Clear
6:55 AM 75.2 °F - 71.6 °F 89% 30.04 in 10.0 mi East 3.5 mph - N/A   Clear
7:15 AM 75.2 °F - 71.6 °F 89% 30.04 in 10.0 mi Calm Calm - N/A   Clear
7:35 AM 77.0 °F - 71.6 °F 83% 30.05 in 10.0 mi East 4.6 mph - N/A   Clear
7:55 AM 77.0 °F - 71.6 °F 83% 30.05 in 10.0 mi East 4.6 mph - N/A   Clear
8:15 AM 77.0 °F - 71.6 °F 83% 30.05 in 10.0 mi East 5.8 mph - N/A   Clear
8:35 AM 78.8 °F - 73.4 °F 83% 30.06 in 10.0 mi ENE 3.5 mph - N/A   Clear
8:55 AM 78.8 °F - 73.4 °F 83% 30.06 in 10.0 mi East 4.6 mph - N/A   Clear
9:15 AM 78.8 °F - 73.4 °F 83% 30.06 in 10.0 mi East 4.6 mph - N/A   Clear
9:35 AM 80.6 °F 85.4 °F 73.4 °F 79% 30.05 in 10.0 mi ESE 5.8 mph - N/A   Clear
9:55 AM 82.4 °F 89.5 °F 75.2 °F 79% 30.05 in 10.0 mi ESE 6.9 mph - N/A   Clear
10:15 AM 82.4 °F 89.5 °F 75.2 °F 79% 30.06 in 10.0 mi SE 8.1 mph - N/A   Clear
10:35 AM 86.0 °F 95.1 °F 75.2 °F 70% 30.06 in 10.0 mi SSE 8.1 mph - N/A   Clear
10:55 AM 86.0 °F 93.4 °F 73.4 °F 66% 30.07 in 10.0 mi SE 10.4 mph - N/A   Clear
11:15 AM 86.0 °F 95.1 °F 75.2 °F 70% 30.07 in 10.0 mi SSE 9.2 mph - N/A   Clear
11:35 AM 86.0 °F 95.1 °F 75.2 °F 70% 30.07 in 10.0 mi SSE 11.5 mph - N/A   Clear
11:55 AM 86.0 °F 93.4 °F 73.4 °F 66% 30.07 in 10.0 mi SSE 6.9 mph - N/A   Clear
12:15 PM 86.0 °F 93.4 °F 73.4 °F 66% 30.06 in 10.0 mi SSE 6.9 mph - N/A   Clear
12:35 PM 87.8 °F 95.6 °F 73.4 °F 62% 30.06 in 10.0 mi SSE 9.2 mph - N/A   Clear
12:55 PM 89.6 °F 98.2 °F 73.4 °F 59% 30.06 in 10.0 mi SSE 9.2 mph - N/A   Clear
1:15 PM 89.6 °F 99.8 °F 75.2 °F 62% 30.05 in 10.0 mi SSE 8.1 mph - N/A   Clear
1:35 PM 89.6 °F 98.2 °F 73.4 °F 59% 30.04 in 10.0 mi SSE 8.1 mph - N/A   Clear
1:55 PM 89.6 °F 98.2 °F 73.4 °F 59% 30.04 in 10.0 mi SSE 6.9 mph - N/A   Clear
2:15 PM 89.6 °F 98.2 °F 73.4 °F 59% 30.03 in 10.0 mi SSE 4.6 mph - N/A   Clear
2:35 PM 91.4 °F 100.1 °F 73.4 °F 55% 30.02 in 10.0 mi South 6.9 mph - N/A   Clear
2:55 PM 91.4 °F 98.4 °F 71.6 °F 52% 30.01 in 10.0 mi South 6.9 mph - N/A   Clear
3:15 PM 91.4 °F 100.1 °F 73.4 °F 55% 30.00 in 10.0 mi South 6.9 mph - N/A   Clear
3:35 PM 91.4 °F 100.1 °F 73.4 °F 55% 30.01 in 10.0 mi SSE 4.6 mph - N/A   Clear
3:55 PM 91.4 °F 100.1 °F 73.4 °F 55% 29.99 in 10.0 mi South 3.5 mph - N/A   Clear
4:15 PM 91.4 °F 100.1 °F 73.4 °F 55% 29.99 in 10.0 mi SSW 6.9 mph - N/A   Clear
4:35 PM 86.0 °F 93.4 °F 73.4 °F 66% 30.00 in 10.0 mi SSW 21.9 mph 26.5 mph N/A   Scattered Clouds
4:55 PM 80.6 °F 85.4 °F 73.4 °F 79% 30.01 in 7.0 mi SW 11.5 mph - N/A Rain Light Rain
5:15 PM 80.6 °F 83.9 °F 69.8 °F 70% 30.00 in 10.0 mi WSW 3.5 mph - N/A   Light Drizzle
5:35 PM 80.6 °F 85.4 °F 73.4 °F 79% 30.02 in 10.0 mi SSE 9.2 mph 43.7 mph N/A   Scattered Clouds
5:55 PM 80.6 °F 83.9 °F 69.8 °F 70% 30.02 in 10.0 mi SSE 8.1 mph - N/A   Clear
6:15 PM 80.6 °F 84.6 °F 71.6 °F 74% 30.01 in 10.0 mi ENE 4.6 mph - N/A   Clear
6:35 PM 80.6 °F 84.6 °F 71.6 °F 74% 30.02 in 10.0 mi Calm Calm - N/A   Clear
6:55 PM 80.6 °F 84.6 °F 71.6 °F 74% 30.03 in 10.0 mi Calm Calm - N/A   Clear
7:15 PM 82.4 °F 86.3 °F 69.8 °F 66% 30.04 in 10.0 mi Calm Calm - N/A   Clear
7:35 PM 82.4 °F 86.3 °F 69.8 °F 66% 30.06 in 10.0 mi East 5.8 mph - N/A   Mostly Cloudy
7:55 PM 80.6 °F 84.6 °F 71.6 °F 74% 30.06 in 10.0 mi East 5.8 mph - N/A   Overcast
8:15 PM 78.8 °F - 71.6 °F 78% 30.06 in 10.0 mi ENE 3.5 mph - N/A   Scattered Clouds
8:35 PM 80.6 °F 85.4 °F 73.4 °F 79% 30.07 in 10.0 mi SSE 5.8 mph - N/A   Mostly Cloudy
8:55 PM 80.6 °F 84.6 °F 71.6 °F 74% 30.07 in 10.0 mi South 6.9 mph - N/A   Scattered Clouds
9:15 PM 80.6 °F 84.6 °F 71.6 °F 74% 30.08 in 10.0 mi South 6.9 mph - N/A   Clear
9:35 PM 80.6 °F 84.6 °F 71.6 °F 74% 30.09 in 10.0 mi South 5.8 mph - N/A   Scattered Clouds
9:55 PM 80.6 °F 84.6 °F 71.6 °F 74% 30.09 in 10.0 mi SSW 5.8 mph - N/A   Scattered Clouds
10:15 PM 78.8 °F - 71.6 °F 78% 30.09 in 10.0 mi SSW 3.5 mph - N/A Rain Light Rain
10:35 PM 78.8 °F - 73.4 °F 83% 30.09 in 10.0 mi Calm Calm - N/A Rain Light Rain
10:55 PM 78.8 °F - 73.4 °F 83% 30.08 in 10.0 mi East 3.5 mph - N/A   Mostly Cloudy
11:15 PM 78.8 °F - 73.4 °F 83% 30.08 in 10.0 mi Calm Calm - N/A   Mostly Cloudy
11:35 PM 78.8 °F - 73.4 °F 83% 30.09 in 10.0 mi NE 3.5 mph - N/A   Mostly Cloudy
11:55 PM 78.8 °F - 73.4 °F 83% 30.09 in 10.0 mi NE 6.9 mph - N/A   Scattered Clouds